Location: Flumini Malu
(39.7000°N, 8.5667°E)
Time: 08:35:04
(UTC+00:00)

Daily predictions for brighter satellites

Satellite Brightness Start Highest point End
(mag) Time Altitude Azimuth Time Altitude Azimuth Time Altitude Azimuth
CZ-4C R/B 3.6 17:45:53 10° N 17:49:27 66° WNW 17:53:00 10° SSW
Cosmos 1707 4.4 17:47:37 10° NNE 17:50:08 16° ENE 17:52:40 10° ESE
H-2A R/B 2.3 17:46:52 10° NNE 17:50:54 42° E 17:54:49 10° S
IRAS Rocket 4.4 17:48:51 10° NNE 17:54:31 89° W 18:00:07 10° SSW
Cosmos 2208 Rocket 4.0 17:52:15 10° NNW 17:57:32 79° ENE 18:02:50 10° SSE
Geosat 4.0 17:56:47 10° NNE 18:01:51 83° ESE 18:06:52 10° SSW
CZ-4B R/B 2.3 18:00:15 10° NE 18:02:49 24° E 18:05:23 10° SSE
Meteor 2-9 Rocket 4.3 17:58:30 10° S 18:04:16 71° E 18:10:08 10° NNE
Cosmos 921 Rocket 2.9 18:00:29 10° N 18:04:47 67° ENE 18:08:58 10° SSE
Cosmos 2181 Rocket 4.0 18:00:38 10° N 18:06:46 65° E 18:12:59 10° SSE
HJ-1C 3.6 18:04:39 10° SSE 18:07:50 46° ENE 18:10:59 10° N
Cosmos 1486 Rocket 4.0 18:05:14 10° S 18:10:25 67° ESE 18:15:40 10° NNE
CZ-4 R/B 1.2 18:08:11 10° SSE 18:12:01 74° ENE 18:15:51 10° N
Lacrosse 4 Rocket 3.8 18:09:09 10° WSW 18:12:27 24° NW 18:15:47 10° N
Okean 2 3.9 18:09:05 10° N 18:12:53 36° ENE 18:16:39 10° SE
CZ-3B R/B 2.7 18:07:46 10° NW 18:17:07 74° SW 18:20:13 10° SE
Cosmos 1842 3.3 18:17:16 10° N 18:21:14 87° W 18:25:09 10° S
Okean O Rocket 3.6 18:17:39 10° SSW 18:21:36 33° W 18:25:34 10° NNW
Cosmos 1833 Rocket 3.8 18:16:36 10° NW 18:21:58 47° WSW 18:27:17 10° S
Feng Yun 1-1 Rocket 4.5 18:16:40 10° S 18:22:02 71° WSW 18:27:26 10° NNW
DMSP B5D2-2 4.0 18:16:59 10° NNE 18:22:17 70° ESE 18:27:32 10° S
SL-08 RB Rocket 3.8 18:19:26 10° S 18:23:53 80° WSW 18:28:22 10° NNW
Cosmos 1975 2.8 18:20:35 10° S 18:24:33 89° W 18:28:32 10° N
Cosmos 2184 Rocket 4.1 18:18:20 10° S 18:24:33 58° E 18:30:43 10° NNE
IRS-1C Rocket 4.0 18:20:01 10° SSE 18:25:15 74° ENE 18:30:30 10° N
Lacrosse 5 rocket 3.6 18:22:51 10° NNW 18:25:31 15° NNE 18:28:02 10° ENE
CSL-04 Rocket 3.8 18:25:10 10° SE 18:30:17 51° ENE 18:35:29 10° N
SL-4 R/B 4.0 18:28:02 10° W 18:30:38 20° SW 18:33:20 10° S
MetOp-A 4.2 18:25:46 10° SSE 18:30:58 55° ENE 18:36:12 10° N
Cosmos 1908 Rocket 3.8 18:27:51 10° SSE 18:32:08 48° E 18:36:26 10° NNE
Cosmos 1340 2.6 18:29:16 10° N 18:33:02 66° E 18:36:45 10° SSE
Cosmos 1626 4.1 18:36:21 10° NE 18:37:33 14° NE 18:37:33 14° NE
H-2A R/B 4.4 18:36:27 10° SSW 18:40:26 24° W 18:44:31 10° NW
Cosmos 1378 Rocket 3.5 18:36:17 10° N 18:40:42 77° E 18:45:06 10° S
PSLV R/B 3.9 18:37:11 10° NNE 18:41:19 59° ESE 18:45:20 10° S
Cosmos 2082 Rocket 2.5 18:36:14 10° NNW 18:41:55 70° WSW 18:47:33 10° SSE
H-2A R/B 4.4 18:38:01 10° SSW 18:41:59 33° W 18:46:02 10° NNW
OAO 2 Rocket 4.0 18:37:06 10° W 18:42:12 48° S 18:45:06 24° SE
SJ-6B 3.7 18:41:04 27° ESE 18:42:15 32° ENE 18:45:56 10° N
Cosmos 1400 Rocket 2.8 18:38:29 10° S 18:42:31 60° E 18:46:33 10° NNE
OBJECT-B 1.4 18:42:29 34° E 18:42:40 34° ENE 18:45:35 10° N
Cosmos 2154 Rocket 4.1 18:36:54 10° SSE 18:43:03 56° E 18:49:15 10° NNE
YAOGAN 1 3.6 18:41:07 10° S 18:45:16 46° W 18:49:27 10° NNW
COSMOS 2455 3.1 18:44:29 10° NNW 18:50:22 51° ENE 18:53:25 27° ESE
USA 276 4.1 18:49:30 10° W 18:52:11 25° NNW 18:54:06 15° NNE
SeaSat 1 2.5 18:54:04 28° SE 18:56:33 61° ENE 19:01:25 10° NNW
ISS -1.3 18:54:50 10° WNW 18:57:25 20° NNW 18:59:51 11° NNE
Cosmos 1674 Rocket 4.1 18:53:12 10° NNW 18:57:29 59° W 19:01:42 10° S
Nadezhda 3 Rocket 3.9 18:58:23 10° N 19:04:31 67° E 19:09:10 18° SSE
Ariane Rocket 3.8 19:04:47 30° ENE 19:04:50 30° ENE 19:09:14 10° N
Cosmos 2369 Rocket 2.3 19:00:32 10° S 19:05:59 51° ESE 19:11:27 10° NNE
Cosmos 2297 4.1 19:02:04 10° SSW 19:07:42 65° WNW 19:13:24 10° NNE
Cosmos 1943 Rocket 2.4 19:03:46 10° SSW 19:09:17 70° WNW 19:14:54 10° NNE
Atlas Centaur 2 3.7 19:02:07 10° SW 19:09:33 34° SSE 19:11:53 29° SE
USA 281 3.5 19:11:42 10° NE 19:17:52 42° ESE 19:24:00 10° S
USA 215 3.3 19:15:14 29° SE 19:18:49 73° SW 19:25:24 10° NW
Okean-O 4.2 19:14:57 10° SSW 19:18:58 35° W 19:23:02 10° NNW
Cosmos 1461 2.6 19:15:00 10° NNW 19:18:53 79° NE 19:18:53 79° NE
Cosmos 1782 Rocket 3.5 19:19:29 16° S 19:23:00 86° W 19:27:28 10° N
ATLAS CENTAUR R/B 1.8 19:20:45 10° NNW 19:25:24 58° NE 19:25:24 58° NE
Cosmos 2341 Rocket 4.0 19:24:04 32° SSE 19:26:58 61° E 19:33:15 10° NNE
USA 186 4.0 19:34:54 22° WNW 19:34:54 22° WNW 19:36:27 10° NNW
Resurs 01 Rocket 3.1 19:37:01 25° NNE 19:37:01 25° NNE 19:39:11 10° N
Cosmos 1346 Rocket 3.6 19:35:06 10° N 19:38:04 48° NNW 19:38:04 48° NNW
Cosmos 1674 3.7 19:36:58 10° NNW 19:40:08 44° WNW 19:40:08 44° WNW
Cosmos 2366 rocket 4.5 19:42:05 41° NE 19:42:05 41° NE 19:46:29 10° NNE
Cosmos 2218 Rocket 4.4 19:45:49 46° NE 19:45:49 46° NE 19:50:30 10° NNE
Cosmos 1777 Rocket 4.2 19:40:05 10° SSW 19:45:19 70° WNW 19:50:33 10° NNE
Resurs 1-3 4.3 19:53:07 51° NW 19:53:07 51° NW 19:56:31 10° NNW
Cosmos 1975 Rocket 3.8 19:50:55 10° NNW 19:54:30 50° NW 19:54:30 50° NW
IRS-1A Rocket 4.3 19:58:02 75° SSW 19:58:26 79° WSW 20:04:20 10° NNW
Helios 1A Rocket 4.4 20:02:18 35° NW 20:02:18 35° NW 20:05:01 10° NNW
MOS 1 4.4 20:01:09 69° SW 20:01:29 71° WSW 20:07:11 10° NNW
Lacrosse 5 rocket 3.1 20:01:05 10° NW 20:03:38 32° NNW 20:03:38 32° NNW
COSMOS 2455 4.5 20:31:07 10° NW 20:35:55 25° WSW 20:36:35 25° WSW
SJ 16-02 4.3 20:45:36 13° NNW 20:45:36 13° NNW 20:46:14 10° N
CZ-3 Stage 3 4.2 20:36:05 10° WSW 20:47:56 34° SW 20:47:56 34° SW
Cosmos 2369 Rocket 4.3 20:45:48 10° WSW 20:50:17 24° NW 20:54:47 10° N
Atlas Centaur 2 4.4 20:50:59 10° WSW 20:54:28 25° SW 20:54:28 25° SW
USA 281 4.4 20:56:19 10° N 21:02:13 37° WNW 21:06:44 16° WSW
